^^
Datos históricos de la estación: Murcia-Puente Tocinos
Diario Informe para Octubre 26, 2019 Unidades:  Métrico    Inglés   Ambas
Diario Semanal Mensual Anual Configurable
  Máximo: Mínimo: Media:
Temperatura: 24.6 °C 12.7 °C 17.7 °C
Punto de rocio: 15.9 °C 10.5 °C 12.9 °C
Humedad: 89% 53% 75%
Velocidad viento: 14.5km/h 0.0km/h 6.7km/h
Racha viento: 25.7km/h - -
Viento- - SE
Presión: 1020.6 hPa 1017.4 hPa -
Precipitación: 0.0 mm    
Historical Graphs
 
 
Tabla de datos para Octubre 26, 2019
Hora Temperatura Punto de rocio Presión Viento Velocidad viento Racha viento Humedad Intensidad lluvia(por hora) Nubes
00:00 16.8 °C 11.3 °C 1020.3 hPa SW 8.0 km/h 11.3 km/h 70% 0.0 mm CLR
00:05 16.8 °C 11.3 °C 1020.3 hPa SW 8.0 km/h 9.7 km/h 70% 0.0 mm CLR
00:10 16.7 °C 11.4 °C 1020.3 hPa SW 8.0 km/h 9.7 km/h 71% 0.0 mm CLR
00:15 16.7 °C 11.4 °C 1020.3 hPa SW 4.8 km/h 8.0 km/h 71% 0.0 mm CLR
00:20 16.6 °C 11.3 °C 1020.3 hPa SW 4.8 km/h 11.3 km/h 71% 0.0 mm CLR
00:25 16.6 °C 11.3 °C 1020.3 hPa SW 6.4 km/h 7.4 km/h 71% 0.0 mm CLR
00:30 16.6 °C 11.3 °C 1020.3 hPa SW 8.0 km/h 9.7 km/h 71% 0.0 mm CLR
00:35 16.6 °C 11.3 °C 1020.3 hPa SSW 4.8 km/h 8.0 km/h 71% 0.0 mm CLR
00:40 16.4 °C 11.3 °C 1020.4 hPa South 4.8 km/h 11.3 km/h 72% 0.0 mm CLR
00:45 16.2 °C 11.3 °C 1020.4 hPa South 8.0 km/h 11.3 km/h 73% 0.0 mm CLR
00:50 16.1 °C 11.4 °C 1020.4 hPa SSW 8.0 km/h 9.7 km/h 74% 0.0 mm CLR
00:55 15.9 °C 11.3 °C 1020.3 hPa South 8.0 km/h 11.3 km/h 74% 0.0 mm CLR
01:00 15.8 °C 11.4 °C 1020.3 hPa South 8.0 km/h 9.7 km/h 75% 0.0 mm CLR
01:05 15.7 °C 11.3 °C 1020.3 hPa South 8.0 km/h 9.7 km/h 75% 0.0 mm CLR
01:10 15.7 °C 11.5 °C 1020.3 hPa South 8.0 km/h 9.7 km/h 76% 0.0 mm CLR
01:15 15.6 °C 11.4 °C 1020.3 hPa SSW 8.0 km/h 11.3 km/h 76% 0.0 mm CLR
01:20 15.5 °C 11.3 °C 1020.3 hPa SSW 8.0 km/h 14.5 km/h 76% 0.0 mm CLR
01:25 15.4 °C 11.4 °C 1020.2 hPa SSW 8.0 km/h 14.5 km/h 77% 0.0 mm CLR
01:30 15.4 °C 11.4 °C 1020.2 hPa SSW 8.0 km/h 14.5 km/h 77% 0.0 mm CLR
01:35 15.3 °C 11.5 °C 1020.2 hPa SSE 8.7 km/h 11.1 km/h 78% 0.0 mm CLR
01:40 15.2 °C 11.4 °C 1020.3 hPa South 9.7 km/h 11.3 km/h 78% 0.0 mm CLR
01:45 15.2 °C 11.4 °C 1020.3 hPa South 8.0 km/h 11.3 km/h 78% 0.0 mm CLR
01:50 15.1 °C 11.5 °C 1020.3 hPa SSW 8.0 km/h 9.7 km/h 79% 0.0 mm CLR
01:55 15.1 °C 11.5 °C 1020.2 hPa South 8.0 km/h 11.3 km/h 79% 0.0 mm CLR
02:00 15.1 °C 11.5 °C 1020.2 hPa South 8.0 km/h 11.3 km/h 79% 0.0 mm CLR
02:05 15.1 °C 11.5 °C 1020.2 hPa South 8.0 km/h 11.3 km/h 79% 0.0 mm CLR
02:10 15.1 °C 11.5 °C 1020.1 hPa SSW 8.0 km/h 11.3 km/h 79% 0.0 mm CLR
02:15 15.0 °C 11.6 °C 1020.1 hPa SSW 8.0 km/h 11.3 km/h 80% 0.0 mm CLR
02:20 15.0 °C 11.6 °C 1020.1 hPa SW 6.9 km/h 11.1 km/h 80% 0.0 mm CLR
02:25 15.0 °C 11.6 °C 1019.9 hPa SSW 8.0 km/h 9.7 km/h 80% 0.0 mm CLR
02:30 15.0 °C 11.6 °C 1019.9 hPa SSW 8.0 km/h 11.3 km/h 80% 0.0 mm CLR
02:35 15.0 °C 11.4 °C 1019.9 hPa SSW 8.0 km/h 11.3 km/h 79% 0.0 mm CLR
02:40 15.1 °C 11.5 °C 1019.9 hPa SSW 8.0 km/h 11.3 km/h 79% 0.0 mm CLR
02:45 15.1 °C 11.5 °C 1019.9 hPa SW 8.0 km/h 11.3 km/h 79% 0.0 mm CLR
02:50 15.2 °C 11.6 °C 1019.9 hPa SW 8.0 km/h 8.0 km/h 79% 0.0 mm CLR
02:55 15.2 °C 11.6 °C 1019.7 hPa SW 4.8 km/h 8.0 km/h 79% 0.0 mm CLR
03:00 15.2 °C 11.6 °C 1019.7 hPa SW 4.8 km/h 8.0 km/h 79% 0.0 mm CLR
03:05 15.2 °C 11.6 °C 1019.7 hPa SW 3.2 km/h 8.0 km/h 79% 0.0 mm CLR
03:10 15.1 °C 11.5 °C 1019.7 hPa SW 3.2 km/h 11.3 km/h 79% 0.0 mm CLR
03:15 15.1 °C 11.7 °C 1019.7 hPa WSW 8.0 km/h 11.3 km/h 80% 0.0 mm CLR
03:20 15.0 °C 11.6 °C 1019.7 hPa WSW 8.0 km/h 9.7 km/h 80% 0.0 mm CLR
03:25 14.9 °C 11.7 °C 1019.7 hPa SW 4.8 km/h 9.7 km/h 81% 0.0 mm CLR
03:30 14.8 °C 11.6 °C 1019.7 hPa SW 4.8 km/h 11.3 km/h 81% 0.0 mm CLR
03:35 14.8 °C 11.6 °C 1019.7 hPa SW 8.0 km/h 9.7 km/h 81% 0.0 mm CLR
03:40 14.8 °C 11.8 °C 1019.6 hPa WSW 8.0 km/h 9.7 km/h 82% 0.0 mm CLR
03:45 14.7 °C 11.7 °C 1019.6 hPa SW 4.8 km/h 9.7 km/h 82% 0.0 mm CLR
03:50 14.7 °C 11.7 °C 1019.6 hPa SW 4.8 km/h 8.0 km/h 82% 0.0 mm CLR
03:55 14.6 °C 11.6 °C 1019.4 hPa SW 3.2 km/h 8.0 km/h 82% 0.0 mm CLR
04:00 14.6 °C 11.6 °C 1019.4 hPa SW 3.2 km/h 8.0 km/h 82% 0.0 mm CLR
04:05 14.6 °C 11.6 °C 1019.4 hPa SW 4.8 km/h 9.7 km/h 82% 0.0 mm CLR
04:10 14.6 °C 11.6 °C 1019.3 hPa WSW 4.8 km/h 8.0 km/h 82% 0.0 mm CLR
04:15 14.5 °C 11.4 °C 1019.3 hPa WSW 4.8 km/h 8.0 km/h 82% 0.0 mm CLR
04:20 14.5 °C 11.4 °C 1019.3 hPa SW 4.8 km/h 8.0 km/h 82% 0.0 mm CLR
04:25 14.4 °C 11.6 °C 1019.2 hPa SW 4.8 km/h 9.7 km/h 83% 0.0 mm CLR
04:30 14.4 °C 11.4 °C 1019.2 hPa SW 5.0 km/h 7.4 km/h 82% 0.0 mm CLR
04:35 14.5 °C 11.4 °C 1019.2 hPa SW 4.8 km/h 8.0 km/h 82% 0.0 mm CLR
04:40 14.5 °C 11.4 °C 1019.2 hPa SW 4.8 km/h 8.0 km/h 82% 0.0 mm CLR
04:45 14.4 °C 11.4 °C 1019.2 hPa SW 3.2 km/h 9.7 km/h 82% 0.0 mm CLR
04:50 14.4 °C 11.4 °C 1019.2 hPa SW 3.2 km/h 8.0 km/h 82% 0.0 mm CLR
04:55 14.3 °C 11.3 °C 1019.3 hPa SSW 4.8 km/h 8.0 km/h 82% 0.0 mm CLR
05:00 14.2 °C 11.0 °C 1019.3 hPa SSE 4.8 km/h 8.0 km/h 81% 0.0 mm CLR
05:05 13.8 °C 10.8 °C 1019.3 hPa SE 3.2 km/h 9.7 km/h 82% 0.0 mm CLR
05:10 13.4 °C 10.6 °C 1019.1 hPa SE 3.2 km/h 9.7 km/h 83% 0.0 mm CLR
05:15 13.1 °C 10.6 °C 1019.1 hPa SSE 4.8 km/h 9.7 km/h 85% 0.0 mm CLR
05:20 12.9 °C 10.6 °C 1019.1 hPa SSE 4.8 km/h 9.7 km/h 86% 0.0 mm CLR
05:25 12.8 °C 10.5 °C 1019.1 hPa SSE 8.0 km/h 9.7 km/h 86% 0.0 mm CLR
05:30 12.7 °C 10.6 °C 1019.1 hPa SE 8.0 km/h 9.7 km/h 87% 0.0 mm CLR
05:35 12.7 °C 10.6 °C 1019.1 hPa SE 4.8 km/h 8.0 km/h 87% 0.0 mm CLR
05:40 12.8 °C 10.7 °C 1019.1 hPa SSE 4.8 km/h 9.7 km/h 87% 0.0 mm CLR
05:45 12.7 °C 10.6 °C 1019.1 hPa SSE 4.8 km/h 9.7 km/h 87% 0.0 mm CLR
05:50 12.7 °C 10.6 °C 1019.1 hPa SE 4.8 km/h 9.7 km/h 87% 0.0 mm CLR
05:55 12.7 °C 10.6 °C 1019.1 hPa SSE 4.8 km/h 9.7 km/h 87% 0.0 mm CLR
06:00 12.7 °C 10.6 °C 1019.1 hPa SSE 4.8 km/h 8.0 km/h 87% 0.0 mm CLR
06:05 12.7 °C 10.8 °C 1019.1 hPa SE 4.8 km/h 9.7 km/h 88% 0.0 mm CLR
06:10 12.7 °C 10.6 °C 1019.2 hPa SE 4.8 km/h 8.0 km/h 87% 0.0 mm CLR
06:15 12.7 °C 10.6 °C 1019.2 hPa SSE 4.8 km/h 9.7 km/h 87% 0.0 mm CLR
06:20 12.8 °C 10.8 °C 1019.2 hPa SSE 4.8 km/h 8.0 km/h 88% 0.0 mm CLR
06:25 12.8 °C 10.7 °C 1019.2 hPa SE 4.8 km/h 9.7 km/h 87% 0.0 mm CLR
06:30 12.8 °C 10.7 °C 1019.2 hPa SE 4.8 km/h 9.7 km/h 87% 0.0 mm CLR
06:35 12.8 °C 10.7 °C 1019.2 hPa SSE 8.0 km/h 9.7 km/h 87% 0.0 mm CLR
06:40 12.9 °C 10.8 °C 1019.2 hPa South 8.0 km/h 8.0 km/h 87% 0.0 mm CLR
06:45 12.9 °C 10.8 °C 1019.2 hPa South 4.8 km/h 8.0 km/h 87% 0.0 mm CLR
06:50 13.0 °C 10.9 °C 1019.2 hPa SSW 4.8 km/h 8.0 km/h 87% 0.0 mm CLR
06:55 13.1 °C 11.0 °C 1019.0 hPa South 4.8 km/h 8.0 km/h 87% 0.0 mm CLR
07:00 13.2 °C 11.1 °C 1019.0 hPa SSE 4.8 km/h 9.7 km/h 87% 0.0 mm CLR
07:05 13.2 °C 10.9 °C 1019.0 hPa SSE 4.8 km/h 8.0 km/h 86% 0.0 mm CLR
07:10 13.2 °C 10.9 °C 1019.1 hPa South 4.8 km/h 11.3 km/h 86% 0.0 mm CLR
07:15 13.1 °C 10.8 °C 1019.1 hPa South 8.0 km/h 11.3 km/h 86% 0.0 mm CLR
07:20 13.1 °C 10.8 °C 1019.1 hPa South 8.0 km/h 11.3 km/h 86% 0.0 mm CLR
07:25 13.1 °C 10.8 °C 1019.2 hPa SSE 8.0 km/h 9.7 km/h 86% 0.0 mm CLR
07:30 13.0 °C 10.7 °C 1019.2 hPa SSE 8.0 km/h 9.7 km/h 86% 0.0 mm CLR
07:35 12.9 °C 10.8 °C 1019.2 hPa SSE 8.0 km/h 9.7 km/h 87% 0.0 mm CLR
07:40 12.9 °C 10.8 °C 1019.3 hPa SSE 8.0 km/h 11.3 km/h 87% 0.0 mm CLR
07:45 12.9 °C 10.8 °C 1019.3 hPa SSE 8.0 km/h 12.9 km/h 87% 0.0 mm CLR
07:50 12.9 °C 10.6 °C 1019.3 hPa South 8.0 km/h 11.3 km/h 86% 0.0 mm CLR
07:55 12.9 °C 10.6 °C 1019.4 hPa South 8.0 km/h 11.3 km/h 86% 0.0 mm CLR
08:00 12.9 °C 10.8 °C 1019.4 hPa South 8.0 km/h 11.3 km/h 87% 0.0 mm CLR
08:05 12.9 °C 10.8 °C 1019.4 hPa SSW 8.0 km/h 11.3 km/h 87% 0.0 mm CLR
08:10 12.9 °C 10.8 °C 1019.5 hPa SSW 8.0 km/h 11.3 km/h 87% 0.0 mm CLR
08:15 13.0 °C 10.9 °C 1019.5 hPa SSW 8.0 km/h 8.0 km/h 87% 0.0 mm CLR
08:20 13.1 °C 10.9 °C 1019.5 hPa SSW 8.0 km/h 9.7 km/h 87% 0.0 mm CLR
08:25 13.1 °C 10.8 °C 1019.6 hPa South 8.0 km/h 11.3 km/h 86% 0.0 mm CLR
08:30 13.1 °C 10.8 °C 1019.6 hPa South 8.0 km/h 9.7 km/h 86% 0.0 mm CLR
08:35 13.1 °C 10.8 °C 1019.6 hPa South 8.0 km/h 9.7 km/h 86% 0.0 mm CLR
08:40 12.9 °C 10.6 °C 1019.7 hPa South 8.0 km/h 9.7 km/h 86% 0.0 mm CLR
08:45 12.9 °C 10.6 °C 1019.7 hPa South 8.0 km/h 9.7 km/h 86% 0.0 mm CLR
08:50 12.9 °C 10.8 °C 1019.7 hPa SSW 8.0 km/h 9.7 km/h 87% 0.0 mm CLR
08:55 13.0 °C 10.9 °C 1019.7 hPa SW 8.0 km/h 11.3 km/h 87% 0.0 mm CLR
09:00 13.1 °C 10.8 °C 1019.7 hPa SW 8.0 km/h 9.7 km/h 86% 0.0 mm CLR
09:05 13.2 °C 10.9 °C 1019.7 hPa SSW 4.8 km/h 9.7 km/h 86% 0.0 mm CLR
09:10 13.3 °C 10.8 °C 1020.0 hPa SSW 4.8 km/h 9.7 km/h 85% 0.0 mm CLR
09:15 13.5 °C 11.0 °C 1020.0 hPa SSW 4.8 km/h 11.3 km/h 85% 0.0 mm CLR
09:20 13.6 °C 10.9 °C 1020.0 hPa SSW 4.8 km/h 14.5 km/h 84% 0.0 mm CLR
09:25 13.6 °C 10.9 °C 1020.1 hPa SSW 8.0 km/h 12.9 km/h 84% 0.0 mm CLR
09:30 13.7 °C 11.1 °C 1020.1 hPa SSW 8.0 km/h 12.9 km/h 84% 0.0 mm CLR
09:35 13.8 °C 11.1 °C 1020.1 hPa South 8.0 km/h 9.7 km/h 84% 0.0 mm CLR
09:40 14.0 °C 11.2 °C 1020.4 hPa SSE 6.9 km/h 7.4 km/h 83% 0.0 mm CLR
09:45 14.1 °C 11.3 °C 1020.4 hPa SSE 4.8 km/h 8.0 km/h 83% 0.0 mm CLR
09:50 14.3 °C 11.2 °C 1020.4 hPa South 4.8 km/h 8.0 km/h 82% 0.0 mm CLR
09:55 14.3 °C 11.3 °C 1020.4 hPa SSW 3.2 km/h 9.7 km/h 82% 0.0 mm CLR
10:00 14.6 °C 11.4 °C 1020.4 hPa South 3.2 km/h 11.3 km/h 81% 0.0 mm CLR
10:05 14.8 °C 11.4 °C 1020.4 hPa South 4.8 km/h 11.3 km/h 80% 0.0 mm CLR
10:10 14.8 °C 11.4 °C 1020.6 hPa South 4.8 km/h 9.7 km/h 80% 0.0 mm CLR
10:15 14.9 °C 11.5 °C 1020.6 hPa SSW 8.0 km/h 8.0 km/h 80% 0.0 mm CLR
10:20 15.2 °C 11.6 °C 1020.6 hPa South 8.0 km/h 9.7 km/h 79% 0.0 mm CLR
10:25 15.4 °C 11.6 °C 1020.5 hPa SSE 4.8 km/h 8.0 km/h 78% 0.0 mm CLR
10:30 15.7 °C 11.7 °C 1020.5 hPa South 4.8 km/h 8.0 km/h 77% 0.0 mm CLR
10:35 15.9 °C 11.6 °C 1020.5 hPa SW 3.2 km/h 8.0 km/h 76% 0.0 mm CLR
10:40 15.9 °C 11.5 °C 1020.6 hPa SW 3.2 km/h 9.7 km/h 75% 0.0 mm CLR
10:45 16.1 °C 11.6 °C 1020.6 hPa SW 4.8 km/h 12.9 km/h 75% 0.0 mm CLR
10:50 16.2 °C 11.8 °C 1020.6 hPa SW 4.8 km/h 9.7 km/h 75% 0.0 mm CLR
10:55 16.4 °C 11.9 °C 1020.6 hPa SW 8.0 km/h 11.3 km/h 75% 0.0 mm CLR
11:00 16.6 °C 11.9 °C 1020.6 hPa SW 8.0 km/h 11.3 km/h 74% 0.0 mm CLR
11:05 16.7 °C 11.8 °C 1020.6 hPa SSW 8.0 km/h 11.3 km/h 73% 0.0 mm CLR
11:10 16.9 °C 11.8 °C 1020.5 hPa SSW 8.0 km/h 11.3 km/h 72% 0.0 mm CLR
11:15 17.0 °C 11.7 °C 1020.5 hPa South 8.0 km/h 11.3 km/h 71% 0.0 mm CLR
11:20 17.2 °C 11.7 °C 1020.5 hPa South 8.0 km/h 11.3 km/h 70% 0.0 mm CLR
11:25 17.3 °C 11.7 °C 1020.6 hPa South 4.8 km/h 9.7 km/h 70% 0.0 mm CLR
11:30 17.4 °C 11.9 °C 1020.6 hPa South 4.8 km/h 11.3 km/h 70% 0.0 mm CLR
11:35 17.6 °C 12.1 °C 1020.6 hPa South 8.0 km/h 9.7 km/h 70% 0.0 mm CLR
11:40 17.8 °C 12.1 °C 1020.5 hPa South 8.0 km/h 12.9 km/h 69% 0.0 mm CLR
11:45 17.9 °C 12.1 °C 1020.5 hPa South 8.0 km/h 11.3 km/h 69% 0.0 mm CLR
11:50 18.1 °C 12.1 °C 1020.5 hPa South 8.0 km/h 11.3 km/h 68% 0.0 mm CLR
11:55 18.3 °C 12.1 °C 1020.4 hPa South 8.0 km/h 11.3 km/h 67% 0.0 mm CLR
12:00 18.4 °C 11.9 °C 1020.4 hPa SSW 8.0 km/h 11.3 km/h 66% 0.0 mm CLR
12:05 18.6 °C 12.3 °C 1020.4 hPa South 8.0 km/h 11.3 km/h 67% 0.0 mm CLR
12:10 18.8 °C 12.1 °C 1020.4 hPa South 8.0 km/h 12.9 km/h 65% 0.0 mm CLR
12:15 18.8 °C 12.1 °C 1020.4 hPa SSE 8.0 km/h 12.9 km/h 65% 0.0 mm CLR
12:20 18.9 °C 12.2 °C 1020.4 hPa SSE 8.0 km/h 12.9 km/h 65% 0.0 mm CLR
12:25 19.1 °C 12.4 °C 1020.4 hPa SSE 8.0 km/h 11.3 km/h 65% 0.0 mm CLR
12:30 19.3 °C 12.3 °C 1020.4 hPa South 8.0 km/h 9.7 km/h 64% 0.0 mm CLR
12:35 19.4 °C 12.4 °C 1020.4 hPa SSW 8.0 km/h 8.0 km/h 64% 0.0 mm CLR
12:40 19.8 °C 12.6 °C 1020.3 hPa SSW 8.0 km/h 8.0 km/h 63% 0.0 mm CLR
12:45 20.1 °C 12.6 °C 1020.3 hPa SSW 3.2 km/h 11.3 km/h 62% 0.0 mm CLR
12:50 20.2 °C 12.7 °C 1020.3 hPa South 3.2 km/h 8.0 km/h 62% 0.0 mm CLR
12:55 20.4 °C 12.7 °C 1020.2 hPa South 4.8 km/h 8.0 km/h 61% 0.0 mm CLR
13:00 20.7 °C 12.7 °C 1020.2 hPa SSE 4.8 km/h 8.0 km/h 60% 0.0 mm CLR
13:05 20.9 °C 12.6 °C 1020.2 hPa SE 3.2 km/h 4.8 km/h 59% 0.0 mm CLR
13:10 21.1 °C 12.5 °C 1020.0 hPa East 3.2 km/h 8.0 km/h 58% 0.0 mm CLR
13:15 21.2 °C 12.6 °C 1020.0 hPa ENE 3.2 km/h 4.8 km/h 58% 0.0 mm CLR
13:20 21.4 °C 12.5 °C 1020.0 hPa NE 3.2 km/h 6.4 km/h 57% 0.0 mm CLR
13:25 21.6 °C 12.4 °C 1019.8 hPa NNE 1.6 km/h 8.0 km/h 56% 0.0 mm CLR
13:30 21.7 °C 12.3 °C 1019.8 hPa North 1.6 km/h 8.0 km/h 55% 0.0 mm CLR
13:35 21.7 °C 12.6 °C 1019.8 hPa NNW 3.2 km/h 8.0 km/h 56% 0.0 mm CLR
13:40 21.9 °C 12.7 °C 1019.5 hPa NNW 3.2 km/h 3.2 km/h 56% 0.0 mm CLR
13:45 22.1 °C 12.9 °C 1019.5 hPa NNW 1.6 km/h 8.0 km/h 56% 0.0 mm CLR
13:50 22.3 °C 13.1 °C 1019.5 hPa North 1.6 km/h 8.0 km/h 56% 0.0 mm CLR
13:55 22.4 °C 13.2 °C 1019.3 hPa North 3.2 km/h 9.7 km/h 56% 0.0 mm CLR
14:00 22.3 °C 12.8 °C 1019.3 hPa NE 3.2 km/h 9.7 km/h 55% 0.0 mm CLR
14:05 22.3 °C 13.1 °C 1019.3 hPa NE 3.2 km/h 11.3 km/h 56% 0.0 mm CLR
14:10 22.3 °C 13.4 °C 1019.1 hPa NNE 3.2 km/h 11.3 km/h 57% 0.0 mm CLR
14:15 22.4 °C 13.2 °C 1019.1 hPa NE 4.8 km/h 9.7 km/h 56% 0.0 mm CLR
14:20 22.6 °C 13.4 °C 1019.1 hPa NNE 4.8 km/h 9.7 km/h 56% 0.0 mm CLR
14:25 22.7 °C 13.7 °C 1019.0 hPa NE 4.8 km/h 12.9 km/h 57% 0.0 mm CLR
14:30 22.8 °C 13.6 °C 1019.0 hPa NE 4.8 km/h 11.3 km/h 56% 0.0 mm CLR
14:35 22.9 °C 13.7 °C 1019.0 hPa North 6.4 km/h 11.1 km/h 56% 0.0 mm CLR
14:40 23.0 °C 13.7 °C 1018.7 hPa NNE 8.0 km/h 16.1 km/h 56% 0.0 mm CLR
14:45 22.9 °C 13.7 °C 1018.7 hPa NNE 9.7 km/h 14.5 km/h 56% 0.0 mm CLR
14:50 23.1 °C 13.8 °C 1018.7 hPa NNE 9.7 km/h 12.9 km/h 56% 0.0 mm CLR
14:55 23.2 °C 13.9 °C 1018.6 hPa NE 8.7 km/h 8.4 km/h 56% 0.0 mm CLR
15:00 23.3 °C 13.8 °C 1018.6 hPa NE 9.7 km/h 11.3 km/h 55% 0.0 mm CLR
15:05 23.4 °C 14.1 °C 1018.6 hPa ENE 8.0 km/h 11.3 km/h 56% 0.0 mm CLR
15:10 23.6 °C 14.0 °C 1018.3 hPa NE 8.0 km/h 11.3 km/h 55% 0.0 mm CLR
15:15 23.6 °C 14.1 °C 1018.3 hPa NNE 4.8 km/h 11.3 km/h 55% 0.0 mm CLR
15:20 23.7 °C 14.1 °C 1018.3 hPa NNE 4.8 km/h 9.7 km/h 55% 0.0 mm CLR
15:25 23.8 °C 14.2 °C 1018.2 hPa NNE 4.8 km/h 14.5 km/h 55% 0.0 mm CLR
15:30 23.8 °C 14.2 °C 1018.2 hPa NNE 4.8 km/h 9.7 km/h 55% 0.0 mm CLR
15:35 23.9 °C 14.3 °C 1018.2 hPa ENE 8.0 km/h 9.7 km/h 55% 0.0 mm CLR
15:40 24.1 °C 14.2 °C 1018.0 hPa ENE 8.0 km/h 8.0 km/h 54% 0.0 mm CLR
15:45 24.1 °C 14.2 °C 1018.0 hPa NE 3.2 km/h 12.9 km/h 54% 0.0 mm CLR
15:50 24.2 °C 14.3 °C 1018.0 hPa NE 3.2 km/h 12.9 km/h 54% 0.0 mm CLR
15:55 24.4 °C 14.2 °C 1017.9 hPa NE 8.0 km/h 11.3 km/h 53% 0.0 mm CLR
16:00 24.5 °C 14.3 °C 1017.9 hPa ENE 8.0 km/h 12.9 km/h 53% 0.0 mm CLR
16:05 24.6 °C 14.3 °C 1017.9 hPa NE 4.8 km/h 8.0 km/h 53% 0.0 mm CLR
16:10 24.6 °C 14.4 °C 1017.8 hPa NNE 4.8 km/h 17.7 km/h 53% 0.0 mm CLR
16:15 24.4 °C 14.2 °C 1017.8 hPa NE 8.0 km/h 16.1 km/h 53% 0.0 mm CLR
16:20 24.4 °C 14.2 °C 1017.8 hPa NE 8.0 km/h 14.5 km/h 53% 0.0 mm CLR
16:25 24.4 °C 14.5 °C 1017.7 hPa NE 9.7 km/h 14.5 km/h 54% 0.0 mm CLR
16:30 24.4 °C 14.5 °C 1017.7 hPa NE 9.7 km/h 16.1 km/h 54% 0.0 mm CLR
16:35 24.4 °C 14.8 °C 1017.7 hPa NE 11.3 km/h 16.1 km/h 55% 0.0 mm CLR
16:40 24.6 °C 14.9 °C 1017.7 hPa NE 11.3 km/h 19.3 km/h 55% 0.0 mm CLR
16:45 24.4 °C 15.4 °C 1017.7 hPa NE 9.7 km/h 14.5 km/h 57% 0.0 mm CLR
16:50 24.5 °C 14.9 °C 1017.7 hPa ENE 9.7 km/h 14.5 km/h 55% 0.0 mm CLR
16:55 24.5 °C 15.1 °C 1017.6 hPa East 8.0 km/h 9.7 km/h 56% 0.0 mm CLR
17:00 24.4 °C 14.8 °C 1017.6 hPa East 8.0 km/h 12.9 km/h 55% 0.0 mm CLR
17:05 24.3 °C 15.3 °C 1017.6 hPa East 8.0 km/h 11.3 km/h 57% 0.0 mm CLR
17:10 24.2 °C 15.2 °C 1017.4 hPa SE 6.9 km/h 7.6 km/h 57% 0.0 mm CLR
17:15 24.2 °C 14.9 °C 1017.4 hPa ESE 8.0 km/h 12.9 km/h 56% 0.0 mm CLR
17:20 24.2 °C 15.4 °C 1017.4 hPa ESE 8.0 km/h 22.5 km/h 58% 0.0 mm CLR
17:25 23.9 °C 15.4 °C 1017.5 hPa ESE 9.7 km/h 22.5 km/h 59% 0.0 mm CLR
17:30 23.7 °C 15.7 °C 1017.5 hPa ESE 9.7 km/h 22.5 km/h 61% 0.0 mm CLR
17:35 23.6 °C 15.4 °C 1017.5 hPa ESE 12.9 km/h 22.5 km/h 60% 0.0 mm CLR
17:40 23.4 °C 15.5 °C 1017.5 hPa ESE 12.9 km/h 20.9 km/h 61% 0.0 mm CLR
17:45 23.3 °C 15.3 °C 1017.5 hPa ESE 12.9 km/h 19.3 km/h 61% 0.0 mm CLR
17:50 23.2 °C 15.3 °C 1017.5 hPa ESE 12.9 km/h 25.7 km/h 61% 0.0 mm CLR
17:55 22.9 °C 15.3 °C 1017.5 hPa ESE 12.9 km/h 24.1 km/h 62% 0.0 mm CLR
18:00 22.9 °C 15.2 °C 1017.5 hPa ESE 12.9 km/h 22.5 km/h 62% 0.0 mm CLR
18:05 22.7 °C 15.3 °C 1017.5 hPa ESE 14.5 km/h 25.7 km/h 63% 0.0 mm CLR
18:10 22.7 °C 15.3 °C 1017.7 hPa ESE 14.5 km/h 20.9 km/h 63% 0.0 mm CLR
18:15 22.6 °C 15.2 °C 1017.7 hPa ESE 14.5 km/h 19.3 km/h 63% 0.0 mm CLR
18:20 22.5 °C 15.4 °C 1017.7 hPa ESE 14.5 km/h 22.5 km/h 64% 0.0 mm CLR
18:25 22.4 °C 15.2 °C 1017.8 hPa ESE 12.9 km/h 20.9 km/h 64% 0.0 mm CLR
18:30 22.3 °C 15.4 °C 1017.8 hPa ESE 12.9 km/h 17.7 km/h 65% 0.0 mm CLR
18:35 22.2 °C 15.6 °C 1017.8 hPa ESE 12.9 km/h 20.9 km/h 66% 0.0 mm CLR
18:40 22.1 °C 15.7 °C 1017.9 hPa ESE 12.2 km/h 14.8 km/h 67% 0.0 mm CLR
18:45 21.9 °C 15.7 °C 1017.9 hPa ESE 11.3 km/h 16.1 km/h 68% 0.0 mm CLR
18:50 21.8 °C 15.8 °C 1017.9 hPa ESE 11.3 km/h 19.3 km/h 69% 0.0 mm CLR
18:55 21.7 °C 15.8 °C 1018.0 hPa East 11.3 km/h 16.1 km/h 69% 0.0 mm CLR
19:00 21.6 °C 15.9 °C 1018.0 hPa East 11.3 km/h 14.5 km/h 70% 0.0 mm CLR
19:05 21.4 °C 15.9 °C 1018.0 hPa ENE 8.0 km/h 14.5 km/h 71% 0.0 mm CLR
19:10 21.3 °C 15.8 °C 1018.2 hPa NE 8.0 km/h 11.3 km/h 71% 0.0 mm CLR
19:15 21.2 °C 15.7 °C 1018.2 hPa NE 8.0 km/h 14.5 km/h 71% 0.0 mm CLR
19:20 21.1 °C 15.8 °C 1018.2 hPa NE 8.0 km/h 14.5 km/h 72% 0.0 mm CLR
19:25 20.9 °C 15.9 °C 1018.3 hPa NE 7.6 km/h 7.4 km/h 73% 0.0 mm CLR
19:30 20.7 °C 15.7 °C 1018.3 hPa NE 8.0 km/h 9.7 km/h 73% 0.0 mm CLR
19:35 20.6 °C 15.8 °C 1018.3 hPa NE 4.8 km/h 9.7 km/h 74% 0.0 mm CLR
19:40 20.3 °C 15.7 °C 1018.4 hPa NE 4.8 km/h 11.3 km/h 75% 0.0 mm CLR
19:45 20.1 °C 15.7 °C 1018.4 hPa NE 8.0 km/h 14.5 km/h 76% 0.0 mm CLR
19:50 19.8 °C 15.7 °C 1018.4 hPa NE 8.0 km/h 16.1 km/h 77% 0.0 mm CLR
19:55 19.7 °C 15.6 °C 1018.7 hPa NE 9.7 km/h 14.5 km/h 77% 0.0 mm CLR
20:00 19.6 °C 15.7 °C 1018.7 hPa NE 9.7 km/h 14.5 km/h 78% 0.0 mm FEW
20:05 19.4 °C 15.4 °C 1018.7 hPa NNE 10.0 km/h 11.1 km/h 78% 0.0 mm CLR
20:10 19.4 °C 15.7 °C 1018.8 hPa NE 9.7 km/h 16.1 km/h 79% 0.0 mm CLR
20:15 19.3 °C 15.6 °C 1018.8 hPa NE 9.5 km/h 13.0 km/h 79% 0.0 mm CLR
20:20 19.2 °C 15.7 °C 1018.8 hPa ENE 9.5 km/h 13.0 km/h 80% 0.0 mm CLR
20:25 19.1 °C 15.6 °C 1019.1 hPa NE 8.0 km/h 14.5 km/h 80% 0.0 mm CLR
20:30 18.9 °C 15.6 °C 1019.1 hPa NE 8.0 km/h 14.5 km/h 81% 0.0 mm CLR
20:35 18.8 °C 15.4 °C 1019.1 hPa NE 8.0 km/h 12.9 km/h 81% 0.0 mm CLR
20:40 18.7 °C 15.6 °C 1019.3 hPa NE 8.0 km/h 12.9 km/h 82% 0.0 mm CLR
20:45 18.6 °C 15.4 °C 1019.3 hPa NE 8.0 km/h 14.5 km/h 82% 0.0 mm CLR
20:50 18.4 °C 15.4 °C 1019.3 hPa NE 8.0 km/h 14.5 km/h 83% 0.0 mm CLR
20:55 18.4 °C 15.4 °C 1019.3 hPa NE 9.7 km/h 16.1 km/h 83% 0.0 mm CLR
21:00 18.3 °C 15.6 °C 1019.3 hPa NE 9.7 km/h 11.3 km/h 84% 0.0 mm CLR
21:05 18.2 °C 15.4 °C 1019.3 hPa NNE 8.0 km/h 11.3 km/h 84% 0.0 mm CLR
21:10 18.1 °C 15.3 °C 1019.5 hPa NNE 8.0 km/h 12.9 km/h 84% 0.0 mm CLR
21:15 17.9 °C 15.3 °C 1019.5 hPa NNE 8.0 km/h 14.5 km/h 85% 0.0 mm CLR
21:20 17.8 °C 15.3 °C 1019.5 hPa NNE 8.0 km/h 14.5 km/h 85% 0.0 mm CLR
21:25 17.8 °C 15.4 °C 1019.5 hPa NNE 9.7 km/h 12.9 km/h 86% 0.0 mm CLR
21:30 17.7 °C 15.3 °C 1019.5 hPa NNE 9.7 km/h 14.5 km/h 86% 0.0 mm CLR
21:35 17.7 °C 15.5 °C 1019.5 hPa NE 8.0 km/h 12.9 km/h 87% 0.0 mm CLR
21:40 17.7 °C 15.5 °C 1019.7 hPa NE 8.0 km/h 11.3 km/h 87% 0.0 mm CLR
21:45 17.7 °C 15.5 °C 1019.7 hPa NE 8.0 km/h 11.3 km/h 87% 0.0 mm CLR
21:50 17.8 °C 15.6 °C 1019.7 hPa NE 6.4 km/h 11.1 km/h 87% 0.0 mm CLR
21:55 17.7 °C 15.5 °C 1019.9 hPa NE 8.0 km/h 9.7 km/h 87% 0.0 mm CLR
22:00 17.7 °C 15.5 °C 1019.9 hPa NE 8.0 km/h 9.7 km/h 87% 0.0 mm CLR
22:05 17.7 °C 15.5 °C 1019.9 hPa NE 8.0 km/h 8.0 km/h 87% 0.0 mm CLR
22:10 17.7 °C 15.5 °C 1020.0 hPa NE 8.0 km/h 9.7 km/h 87% 0.0 mm CLR
22:15 17.6 °C 15.4 °C 1020.0 hPa NE 4.8 km/h 9.7 km/h 87% 0.0 mm CLR
22:20 17.4 °C 15.4 °C 1020.0 hPa NE 4.8 km/h 9.7 km/h 88% 0.0 mm CLR
22:25 17.4 °C 15.4 °C 1020.2 hPa NE 4.8 km/h 8.0 km/h 88% 0.0 mm CLR
22:30 17.3 °C 15.3 °C 1020.2 hPa NE 4.8 km/h 8.0 km/h 88% 0.0 mm CLR
22:35 17.2 °C 15.2 °C 1020.2 hPa NE 3.2 km/h 4.8 km/h 88% 0.0 mm CLR
22:40 17.2 °C 15.2 °C 1020.1 hPa NNE 3.2 km/h 8.0 km/h 88% 0.0 mm CLR
22:45 17.2 °C 15.4 °C 1020.1 hPa NNE 3.2 km/h 4.8 km/h 89% 0.0 mm CLR
22:50 17.1 °C 15.3 °C 1020.1 hPa NNE 3.2 km/h   89% 0.0 mm CLR
22:55 17.1 °C 15.3 °C 1020.2 hPa Calm     89% 0.0 mm CLR
23:00 17.1 °C 15.3 °C 1020.2 hPa Calm   3.2 km/h 89% 0.0 mm CLR
23:05 17.0 °C 15.2 °C 1020.2 hPa NNE 1.6 km/h 6.4 km/h 89% 0.0 mm CLR
23:10 16.9 °C 15.1 °C 1020.1 hPa NNE 1.6 km/h 3.2 km/h 89% 0.0 mm CLR
23:15 16.9 °C 14.9 °C 1020.1 hPa Calm   8.0 km/h 88% 0.0 mm CLR
23:20 16.8 °C 15.0 °C 1020.1 hPa Calm   6.4 km/h 89% 0.0 mm CLR
23:25 16.8 °C 15.0 °C 1020.1 hPa East 3.2 km/h 4.8 km/h 89% 0.0 mm CLR
23:30 16.7 °C 14.9 °C 1020.1 hPa East 3.2 km/h 4.8 km/h 89% 0.0 mm CLR
23:35 16.7 °C 14.9 °C 1020.1 hPa East 3.2 km/h 4.8 km/h 89% 0.0 mm CLR
23:40 16.7 °C 14.9 °C 1020.1 hPa East 3.2 km/h 4.8 km/h 89% 0.0 mm CLR
23:45 16.6 °C 14.8 °C 1020.1 hPa ESE 3.2 km/h 3.2 km/h 89% 0.0 mm CLR
23:50 16.6 °C 14.8 °C 1020.1 hPa ESE 3.2 km/h 1.6 km/h 89% 0.0 mm CLR
23:55 16.6 °C 14.8 °C 1020.2 hPa Calm     89% 0.0 mm CLR
Murcia-Puente Tocinos, España
Compliments of Weather Underground - 2.75 mb

La estación de MeteoMurcia.com, publica sus datos en los siguientes proyectos:

Weather Underground PWS IMURCIAP2 Meteoclimatic www.awekas.at

W3Counter
Web Analytics